Volver al catálogo

COSMOS 1975

ActivoMilitarPO
NORAD 19573·PAYLOAD·🇷🇺 Russia

Lanzado Oct 11, 1988 desde Plesetsk Cosmodrome

Loading…

Próximos Pases (próximas 24 horas)

TLE

ActualizadoSource: Space-Track

Época: Sep 14, 2026, 08:54 UTC

1 19573U 88093A   26257.37116803  .00005182  00000-0  17543-3 0  9993
2 19573  82.5161 287.9313 0010025 215.1909 144.8670 15.30310105 48245

Sigue COSMOS 1975 en tiempo real con AllMySat

Download on the App Store